Terminal Aerodrome Forecast
Issued by NWS Des Moines, IA

Home | Current Version | Previous Version | Text Only | Print | Product List | Glossary On
Versions: 1 2 3 4 5 6 7 8 9 10 11 12 13 14 15 16 17 18 19 20
000
FTUS43 KDMX 221741
TAFALO
TAF
KALO 221741Z 2218/2318 22010KT P6SM SCT080 BKN250
     FM230100 25006KT P6SM VCSH SCT020 BKN035
     FM230700 30007KT P6SM BKN040
     FM231500 35009KT P6SM BKN050=

USA.gov is the U.S. government's official web portal to all federal, state and local government web resources and services.